[[{"header":{"parameterUnit":"m.s-1","parameterCategory":1,"la1":30.2991,"la2":30.254,"lo1":-89.0895,"lo2":-89.0444,"dy":0.0017,"dx":0.0017,"nx":28,"ny":28,"refTime":"2024-09-27T03:00:00:Z","depth":0,"parameterNumber":2,"parameterNumberName":"U-component_of_WINDS"},"data":[0,0,0,0,0,0,0,0,0,0,0,0,0,0,0,0,0,0,0,0,0,0,0,0,0,0,0,0,0,0,0,0,0,0,0,0,0,0,0,0,0,0,0,0,0,0,0,0,0,0,0,0,0,0,0,0,0,0,0.1515,0.1515,0,0.1489,0.1489,0.1489,0.1483,0.1484,0.1484,0.1484,0.1456,0.1456,0.1455,0,0,0,0,0,0,0,0,0,0,0,0,0,0.1558,0.1557,0.1515,0.1514,0.1514,0.1489,0.1489,0.1489,0.1483,0.1484,0.1484,0.1484,0.1457,0.1456,0.1455,0,0,0,0,0,0,0,0,0,0,0,0,0,0.1537,0.1557,0.1515,0.1509,0.1508,0.149,0.1489,0.1489,0.1483,0.1484,0.1484,0.1484,0.1457,0.1456,0.1454,0.144,0,0,0.145,0.145,0,0,0,0,0,0,0,0,0.1538,0.1535,0.151,0.1509,0.1508,0.149,0.1494,0.1472,0.1483,0.1493,0.1484,0.1484,0.1467,0.1465,0.146,0.1439,0.1438,0.145,0.1449,0.1449,0.1448,0,0,0,0,0,0,0,0.1539,0.1536,0.1505,0.1509,0.1508,0.1507,0.1504,0.149,0.1479,0.1492,0.1491,0.1488,0.1467,0.1461,0.1459,0.1437,0.145,0.1449,0.1448,0.1448,0.1405,0.1405,0,0,0,0,0,0,0.1542,0.1537,0.1506,0.1504,0.1524,0.1506,0.1503,0.1495,0.1479,0.1476,0.1488,0.1488,0.1463,0.1461,0.1458,0.1441,0.1449,0.1447,0.1447,0.1405,0.1405,0.1404,0,0,0,0,0,0,0.1543,0.1539,0.1507,0.1521,0.1516,0.1505,0.1497,0.1495,0.1489,0.1476,0.1474,0.1484,0.1463,0.146,0.1445,0.144,0.1447,0.1446,0.1406,0.1405,0.1405,0.1406,0,0,0,0,0,0,0.1544,0.154,0.1534,0.1521,0.1516,0.1494,0.1496,0.1494,0.1487,0.1487,0.1472,0.147,0.1463,0.1447,0.1444,0.1438,0.1445,0.1406,0.1405,0.1405,0.1406,0.1406,0.1405,0,0,0,0,0,0.1546,0.1535,0.1534,0.153,0.1508,0.1494,0.1491,0.1484,0.1486,0.1481,0.1473,0.147,0.1441,0.1446,0.1442,0.1435,0.1406,0.1406,0.1405,0.1407,0.1406,0.1405,0,0,0,0,0,0,0.1547,0.1533,0.1532,0.1516,0.1506,0.1493,0.1486,0.1483,0.1472,0.1472,0.1464,0.1461,0.1447,0.144,0.1445,0.1421,0.1424,0.1422,0.1426,0.1425,0.1425,0.1427,0.1443,0,0,0,0,0,0.1546,0.1536,0.1524,0.1511,0.1506,0.1497,0.149,0.1486,0.1475,0.1471,0.1462,0.1451,0.144,0.1432,0.1421,0.1406,0.1403,0.14,0.1399,0.1398,0.1397,0.1389,0.1388,0.1402,0.1402,0.1402,0,0,0.1543,0.1534,0.1528,0.1511,0.1503,0.1492,0.1493,0.1482,0.1474,0.1469,0.1455,0.1448,0.1436,0.1421,0.1414,0.1414,0.1392,0.1397,0.1397,0.1396,0.1388,0.1387,0.1386,0.1402,0.1402,0.1402,0,0,0.1532,0.1524,0.1513,0.1505,0.1493,0.1487,0.1485,0.1472,0.1468,0.1453,0.145,0.144,0.142,0.1412,0.1405,0.1393,0.139,0.1389,0.1385,0.1378,0.1377,0.1376,0.1371,0.137,0.1388,0.1388,0.1388,0,0.1529,0.1513,0.1507,0.1496,0.1489,0.1486,0.1475,0.1467,0.1452,0.1447,0.1449,0.1425,0.1416,0.14,0.1397,0.1391,0.1388,0.139,0.1377,0.1376,0.1375,0.1371,0.1369,0.1388,0.1388,0.1388,0.1388,0,0.1511,0.15,0.1492,0.1479,0.1471,0.146,0.1453,0.1445,0.1442,0.1436,0.1422,0.1412,0.1399,0.1395,0.1391,0.1378,0.1379,0.1379,0.1381,0.1374,0.137,0.1368,0.1388,0.1388,0.1388,0.1388,0,0,0.1498,0.1483,0.148,0.1474,0.1462,0.1453,0.1442,0.1431,0.1425,0.1415,0.1406,0.139,0.139,0.1382,0.1378,0.1371,0.1363,0.1372,0.1372,0.1371,0.1348,0.1348,0.1346,0.1361,0.1361,0.1361,0.1349,0,0.1486,0.1466,0.1461,0.1445,0.1435,0.1432,0.1423,0.1414,0.1409,0.14,0.1393,0.1383,0.1384,0.1379,0.1372,0.1365,0.1358,0.1366,0.1352,0.1352,0.1355,0.1344,0.1344,0.1333,0.1347,0.1347,0.1347,0,0.1468,0.1458,0.1441,0.1431,0.1427,0.1418,0.1408,0.1399,0.1389,0.1386,0.1378,0.1375,0.1364,0.1367,0.1352,0.1357,0.1352,0.1348,0.1347,0.1345,0.1349,0.1342,0.1329,0.1328,0.1344,0.1345,0.1345,0,0.1461,0.1444,0.1432,0.1427,0.1414,0.1409,0.1403,0.1394,0.1388,0.1378,0.1374,0.1363,0.1357,0.1349,0.1343,0.1346,0.1329,0.1331,0.1325,0.1325,0.1321,0.1321,0.1308,0.1318,0.1318,0.1318,0.1318,0,0.1447,0.1436,0.1429,0.1421,0.1409,0.1404,0.1393,0.1387,0.138,0.1371,0.1368,0.136,0.1353,0.1344,0.1339,0.1327,0.1324,0.1321,0.132,0.1321,0.1322,0.1317,0.1318,0.1318,0.1318,0.1318,0.1318,0,0.1436,0.1431,0.1417,0.1407,0.1405,0.1397,0.1388,0.1381,0.1376,0.1365,0.1362,0.1354,0.1344,0.1337,0.1324,0.1321,0.1308,0.1307,0.1311,0.131,0.1305,0.1305,0.1287,0.1285,0.1297,0.1297,0.1297,0,0.1427,0.142,0.1409,0.1404,0.1398,0.1389,0.1383,0.1378,0.1371,0.1361,0.1355,0.1344,0.1336,0.1319,0.1312,0.1302,0.13,0.1295,0.1299,0.1301,0.13,0.1301,0.13,0.1294,0.1294,0.1294,0.1294,0,0.1412,0.1411,0.1402,0.1392,0.1385,0.1378,0.137,0.1365,0.1359,0.1352,0.1342,0.1335,0.1322,0.1312,0.1301,0.1296,0.1294,0.1293,0.1291,0.1292,0.1295,0.1293,0.1309,0.1293,0.1293,0.1293,0.1293,0.1293,0.1403,0.1396,0.1388,0.1378,0.1372,0.1366,0.1359,0.1353,0.1345,0.1334,0.1332,0.1321,0.1313,0.1299,0.1293,0.1284,0.1285,0.1282,0.1281,0.1281,0.1281,0.1297,0.1282,0.1282,0.1282,0.1282,0.1282,0,0.1387,0.1383,0.1374,0.1364,0.1357,0.1357,0.1349,0.1343,0.1333,0.1326,0.1318,0.1307,0.1297,0.129,0.128,0.1275,0.1274,0.1272,0.1272,0.1271,0.1281,0.1283,0.1273,0.1273,0.1273,0.1273,0.1273,0.1273,0.1379,0.1368,0.1365,0.1351,0.1346,0.1336,0.1331,0.1325,0.1319,0.1307,0.1299,0.1295,0.1288,0.1278,0.1269,0.1267,0.1264,0.1263,0.1261,0.1269,0.127,0.1271,0.1274,0.1262,0.1262,0.1252,0.1252,0.1252]},{"header":{"parameterUnit":"m.s-1","parameterCategory":1,"la1":30.2991,"la2":30.254,"lo1":-89.0895,"lo2":-89.0444,"dy":0.0017,"dx":0.0017,"nx":28,"ny":28,"refTime":"2024-09-27T03:00:00:Z","depth":0,"parameterNumber":3,"parameterNumberName":"V-component_of_WINDS"},"data":[0,0,0,0,0,0,0,0,0,0,0,0,0,0,0,0,0,0,0,0,0,0,0,0,0,0,0,0,0,0,0,0,0,0,0,0,0,0,0,0,0,0,0,0,0,0,0,0,0,0,0,0,0,0,0,0,0,0,-9.004,-9.0041,0,-9.0129,-9.013,-9.0131,-9.0063,-9.006,-9.0058,-9.0055,-9.0139,-9.0144,-9.0149,0,0,0,0,0,0,0,0,0,0,0,0,0,-8.9806,-8.9811,-9.004,-9.0041,-9.0042,-9.0129,-9.013,-9.0132,-9.0064,-9.006,-9.0057,-9.0053,-9.0138,-9.0144,-9.0149,0,0,0,0,0,0,0,0,0,0,0,0,0,-8.9902,-8.9812,-9.004,-9.0019,-9.0018,-9.0129,-9.013,-9.0132,-9.0065,-9.006,-9.0056,-9.0052,-9.0136,-9.0143,-9.015,-9.0284,0,0,-9.0173,-9.0176,0,0,0,0,0,0,0,0,-8.9897,-8.9911,-9.0021,-9.0021,-9.002,-9.0081,-9.0079,-9.0183,-9.0066,-9.0047,-9.0055,-9.005,-9.0123,-9.0131,-9.0157,-9.0288,-9.0292,-9.0174,-9.0178,-9.0181,-9.0184,0,0,0,0,0,0,0,-8.989,-8.9907,-9.0075,-9.0023,-9.0022,-9.0004,-9.0013,-9.0098,-9.0108,-9.0048,-9.0043,-9.0055,-9.0122,-9.015,-9.0159,-9.0293,-9.0174,-9.018,-9.0185,-9.0188,-9.054,-9.0545,0,0,0,0,0,0,-8.9887,-8.9902,-9.0072,-9.0078,-8.9947,-9.0012,-9.0021,-9.0066,-9.0107,-9.0109,-9.0059,-9.0052,-9.014,-9.015,-9.0161,-9.0322,-9.0181,-9.0188,-9.0193,-9.0535,-9.0541,-9.0546,0,0,0,0,0,0,-8.9882,-8.9902,-9.0069,-8.9989,-9.0008,-9.002,-9.007,-9.007,-9.0098,-9.0115,-9.0116,-9.0087,-9.0137,-9.0151,-9.0255,-9.0324,-9.0192,-9.0199,-9.0529,-9.0537,-9.0544,-9.0644,0,0,0,0,0,0,-8.9875,-8.9901,-8.9953,-8.999,-9.0013,-9.0162,-9.0075,-9.0075,-9.0112,-9.0104,-9.0142,-9.0144,-9.0134,-9.0244,-9.0263,-9.0332,-9.0204,-9.0523,-9.0533,-9.0541,-9.0635,-9.0654,-9.0671,0,0,0,0,0,-8.9867,-8.9976,-8.9956,-8.9977,-9.0078,-9.0167,-9.0179,-9.0168,-9.0118,-9.017,-9.0181,-9.0142,-9.0314,-9.0256,-9.0275,-9.0348,-9.0519,-9.053,-9.0541,-9.0627,-9.0651,-9.067,0,0,0,0,0,0,-8.9943,-8.998,-8.9959,-9.0083,-9.0123,-9.0155,-9.022,-9.0193,-9.0246,-9.0236,-9.0218,-9.0227,-9.0337,-9.0353,-9.0287,-9.0481,-9.0408,-9.0424,-9.0467,-9.0489,-9.0507,-9.0501,-9.0211,0,0,0,0,0,-8.9974,-9.0045,-9.0073,-9.0179,-9.0201,-9.0208,-9.0245,-9.0234,-9.0273,-9.0289,-9.0308,-9.0346,-9.0408,-9.0449,-9.0508,-9.0637,-9.0645,-9.0697,-9.0715,-9.073,-9.0743,-9.0815,-9.0838,-9.0582,-9.0582,-9.0582,0,0,-9.0039,-9.0068,-9.0113,-9.0196,-9.0225,-9.0297,-9.0222,-9.03,-9.0354,-9.03,-9.0401,-9.0416,-9.0457,-9.0575,-9.0628,-9.0592,-9.0816,-9.0744,-9.0755,-9.0761,-9.0828,-9.0853,-9.0874,-9.059,-9.0588,-9.0587,0,0,-9.0195,-9.0224,-9.0317,-9.035,-9.0397,-9.0401,-9.0423,-9.0461,-9.047,-9.0572,-9.0534,-9.0595,-9.0703,-9.0735,-9.0765,-9.0937,-9.0903,-9.0956,-9.105,-9.1119,-9.1139,-9.1157,-9.1219,-9.1242,-9.0969,-9.097,-9.097,0,-9.0269,-9.0378,-9.0368,-9.0451,-9.0489,-9.0447,-9.0542,-9.0572,-9.0635,-9.0661,-9.062,-9.0757,-9.0781,-9.0907,-9.095,-9.0975,-9.1,-9.0951,-9.1138,-9.1156,-9.1172,-9.1231,-9.1254,-9.0976,-9.0975,-9.0975,-9.0974,0,-9.0468,-9.0544,-9.0614,-9.068,-9.0725,-9.0813,-9.0815,-9.0862,-9.0847,-9.0856,-9.096,-9.0988,-9.1053,-9.1082,-9.1067,-9.1207,-9.1183,-9.1141,-9.1067,-9.1203,-9.1258,-9.1281,-9.0985,-9.0982,-9.0981,-9.0979,0,0,-9.0671,-9.0733,-9.0759,-9.0789,-9.0839,-9.0897,-9.0984,-9.105,-9.1091,-9.1136,-9.1208,-9.1302,-9.1264,-9.1299,-9.1287,-9.1348,-9.1484,-9.1298,-9.1299,-9.1333,-9.1641,-9.1673,-9.17,-9.1463,-9.1467,-9.1471,-9.1638,0,-9.083,-9.0984,-9.0979,-9.1121,-9.1193,-9.1156,-9.1231,-9.1269,-9.128,-9.134,-9.1351,-9.1419,-9.1363,-9.1384,-9.1443,-9.1455,-9.1546,-9.1443,-9.1529,-9.1532,-9.152,-9.1728,-9.1762,-9.1919,-9.1659,-9.1663,-9.1666,0,-9.1036,-9.1092,-9.1243,-9.1286,-9.1315,-9.1384,-9.1445,-9.1504,-9.1547,-9.155,-9.1591,-9.157,-9.1657,-9.1582,-9.1701,-9.1632,-9.1666,-9.1678,-9.1684,-9.1691,-9.1607,-9.1742,-9.1968,-9.1992,-9.1699,-9.1697,-9.1694,0,-9.1171,-9.1284,-9.139,-9.1416,-9.1468,-9.1518,-9.1541,-9.158,-9.1621,-9.1674,-9.1701,-9.1762,-9.1796,-9.1843,-9.184,-9.1785,-9.1961,-9.1885,-9.1966,-9.1967,-9.2004,-9.2002,-9.224,-9.2027,-9.2026,-9.2026,-9.2025,0,-9.1349,-9.1443,-9.1451,-9.1516,-9.1621,-9.1614,-9.1717,-9.1734,-9.177,-9.1837,-9.1808,-9.1871,-9.1862,-9.1925,-9.1923,-9.2023,-9.2037,-9.2042,-9.204,-9.2045,-9.2045,-9.2068,-9.2057,-9.2032,-9.2031,-9.2029,-9.2028,0,-9.1517,-9.1526,-9.1639,-9.1681,-9.1694,-9.1769,-9.1803,-9.1865,-9.1874,-9.1959,-9.1979,-9.1993,-9.2066,-9.2067,-9.215,-9.2148,-9.2271,-9.2256,-9.2257,-9.2255,-9.2336,-9.2329,-9.2597,-9.2632,-9.2395,-9.2398,-9.24,0,-9.163,-9.1702,-9.1753,-9.1798,-9.1825,-9.1897,-9.194,-9.1936,-9.1981,-9.2038,-9.2092,-9.2163,-9.222,-9.2338,-9.2354,-9.2418,-9.2405,-9.2495,-9.2414,-9.2418,-9.2408,-9.2404,-9.2411,-9.251,-9.2513,-9.2515,-9.2517,0,-9.1831,-9.1833,-9.1897,-9.1965,-9.2019,-9.207,-9.2118,-9.2156,-9.2157,-9.221,-9.2287,-9.2331,-9.2418,-9.2489,-9.2551,-9.2573,-9.2546,-9.2543,-9.2565,-9.2571,-9.2569,-9.2572,-9.2301,-9.2536,-9.2534,-9.2533,-9.2532,-9.2531,-9.1975,-9.2039,-9.2086,-9.2159,-9.2196,-9.2243,-9.2304,-9.2322,-9.2387,-9.2459,-9.2452,-9.2537,-9.258,-9.2661,-9.2689,-9.2754,-9.2723,-9.2755,-9.2763,-9.2771,-9.2781,-9.2559,-9.2765,-9.2765,-9.2764,-9.2764,-9.2763,0,-9.2175,-9.2205,-9.2273,-9.2343,-9.2402,-9.2374,-9.2427,-9.2477,-9.2553,-9.2596,-9.2654,-9.2743,-9.2812,-9.2835,-9.2903,-9.2951,-9.294,-9.2968,-9.2965,-9.2971,-9.2804,-9.2779,-9.2976,-9.2976,-9.2976,-9.2976,-9.2976,-9.2976,-9.2286,-9.2393,-9.2401,-9.2526,-9.2554,-9.264,-9.2673,-9.2715,-9.275,-9.2852,-9.2911,-9.2927,-9.2962,-9.3032,-9.3095,-9.3099,-9.3126,-9.316,-9.316,-9.3003,-9.2982,-9.2962,-9.2938,-9.3165,-9.3166,-9.3321,-9.3322,-9.3323]}]]